This is the latest recevied weather packets stored in our database for station/object WE8L. If no packets are shown the sender has not sent any weather packets the latest 10 day(s).
| Time | Temp. | Humidity | Pressure | Rain* | Wind** | Luminosity | Snow |
|---|---|---|---|---|---|---|---|
| 1777927818 | 23.33° C | 50% | 1009.8 hPa | 0 mm | - | 107 W/m² | - |
| 1777927516 | 23.89° C | 49% | 1009.8 hPa | 0 mm | - | 102 W/m² | - |
| 1777927215 | 23.33° C | 51% | 1009.8 hPa | 0 mm | - | 114 W/m² | - |
| 1777926913 | 23.33° C | 50% | 1009.7 hPa | 0 mm | - | 94 W/m² | - |
| 1777926610 | 23.33° C | 50% | 1009.9 hPa | 0 mm | - | 103 W/m² | - |
| 1777926305 | 23.33° C | 50% | 1010.1 hPa | 0 mm | - | 107 W/m² | - |
| 1777926002 | 22.78° C | 51% | 1010.2 hPa | 0 mm | - | 128 W/m² | - |
| 1777925699 | 22.78° C | 51% | 1010.1 hPa | 0 mm | - | 108 W/m² | - |
| 1777925396 | 22.78° C | 51% | 1010.3 hPa | 0 mm | - | 89 W/m² | - |
| 1777925093 | 23.33° C | 51% | 1010.2 hPa | 0 mm | - | 86 W/m² | - |
| 1777924790 | 23.33° C | 51% | 1010.2 hPa | 0 mm | - | 94 W/m² | - |
| 1777924485 | 23.33° C | 53% | 1010.3 hPa | 0 mm | - | 99 W/m² | - |
| 1777924182 | 22.78° C | 52% | 1010.2 hPa | 0 mm | - | 105 W/m² | - |
| 1777923878 | 22.78° C | 52% | 1010.4 hPa | 0 mm | - | 114 W/m² | - |
| 1777923575 | 22.78° C | 53% | 1010.6 hPa | 0 mm | - | 283 W/m² | - |
| 1777923272 | 21.67° C | 56% | 1010.4 hPa | 0 mm | - | 211 W/m² | - |
| 1777922971 | 21.67° C | 57% | 1010.6 hPa | 0 mm | - | 197 W/m² | - |
| 1777922667 | 21.11° C | 58% | 1010.8 hPa | 0 mm | - | 212 W/m² | - |
| 1777922366 | 20.56° C | 61% | 1010.8 hPa | 0 mm | - | 163 W/m² | - |
| 1777922064 | 20.56° C | 61% | 1010.9 hPa | 0 mm | - | 93 W/m² | - |
| 1777921759 | 20.56° C | 64% | 1011.1 hPa | 0 mm | - | 95 W/m² | - |
| 1777921455 | 20° C | 65% | 1011.5 hPa | 0 mm | - | 72 W/m² | - |
| 1777921152 | 20° C | 65% | 1011.2 hPa | 0 mm | - | 107 W/m² | - |
| 1777920849 | 20° C | 64% | 1011 hPa | 0 mm | - | 65 W/m² | - |
| 1777920545 | 20° C | 64% | 1011.2 hPa | 0 mm | - | 42 W/m² | - |
* Rain latest hour (hover to see other rain measurements)
** Current wind speed in m/s (hover to see current wind gust speed)